This demonstration page uses our WeatherBlox Daily Observations layout. Learn more.

Left ArrowRight Arrow

39.01783, -85.05884

Hourly Observations for September 19, 2017

Temp ( °F °C ) Dew Point ( °F °C ) Humidity (%) Winds ( mph kmh ) Pressure ( in mb ) Visibility ( mi km ) Precip ( " mm )
12:52 am 00:52 Mostly Cloudy 70 21.1 67 19.4 90 90 SSE 5 7 29.96 1015 10 16 0.00 0.00
1:52 am 01:52 Cloudy 70 21.1 66 18.9 87 87 S 3 6 29.96 1015 10 16 0.00 0.00
2:52 am 02:52 Cloudy 70 21.1 66 18.9 87 87 S 5 7 29.95 1014 10 16 0.00 0.00
3:52 am 03:52 Cloudy 70 21.1 66 18.9 87 87 SSE 6 9 29.94 1014 10 16 0.00 0.00
4:52 am 04:52 Cloudy 70 21.1 67 19.4 90 90 SSE 6 9 29.93 1014 10 16 0.00 0.00
5:52 am 05:52 Cloudy 69 20.6 67 19.4 93 93 S 7 11 29.93 1014 10 16 0.00 0.00
6:52 am 06:52 Cloudy 70 21.1 67 19.4 90 90 SSW 5 7 29.93 1014 10 16 0.00 0.03
7:52 am 07:52 Cloudy 70 21.1 67 19.4 90 90 S 7 11 29.95 1014 8 13 0.00 0.00
8:52 am 08:52 Cloudy with Light Rain 70 21.1 68 20 93 93 SSW 6 9 29.96 1015 8 13 0.00 0.03
9:52 am 09:52 Cloudy with Mist and Fog 69 20.6 69 20.6 100 100 SSW 8 13 29.98 1015 6 10 0.01 0.25
10:52 am 10:52 Cloudy with Light Rain 70 21.1 70 21.1 100 100 SSW 7 11 29.99 1016 2 3 0.03 0.76
11:10 am 11:10 Cloudy with Light Rain 70 21.1 70 21.1 100 100 S 9 15 30.00 1016 4 6 0.08 2.03
11:52 am 11:52 Cloudy with Light Rain 70 21.1 70 21.1 100 100 SSW 8 13 30.00 1016 3 5 0.09 2.29
12:52 pm 12:52 Cloudy with Light Rain 68 20 68 20 100 100 SSW 5 7 29.99 1016 6 10 0.14 3.56
1:52 pm 13:52 Cloudy 70 21.1 67 19.4 90 90 Calm 29.96 1015 10 16 0.00 0.03
2:52 pm 14:52 Mostly Cloudy 75 23.9 67 19.4 76 76 E 5 7 29.94 1014 10 16 0.00 0.00
3:52 pm 15:52 Partly Cloudy 76 24.4 68 20 77 77 Calm 29.92 1013 10 16 0.00 0.00
4:52 pm 16:52 Mostly Cloudy 77 25 68 20 74 74 Calm 29.91 1013 10 16 0.00 0.00
5:52 pm 17:52 Mostly Cloudy 76 24.4 67 19.4 74 74 SW 8 13 29.91 1013 10 16 0.00 0.00
6:52 pm 18:52 Mostly Cloudy 75 23.9 69 20.6 82 82 S 8 13 29.92 1013 10 16 0.00 0.00
7:52 pm 19:52 Partly Cloudy 72 22.2 68 20 87 87 SSW 5 7 29.92 1013 10 16 0.00 0.00
8:52 pm 20:52 Clear 68 20 68 20 100 100 Calm 29.93 1013 10 16 0.00 0.00
9:52 pm 21:52 Clear 67 19.4 67 19.4 100 100 S 3 6 29.94 1014 10 16 0.00 0.00
10:52 pm 22:52 Mostly Clear 66 18.9 66 18.9 100 100 Calm 29.95 1014 10 16 0.00 0.00
11:52 pm 23:52 Clear 64 17.8 64 17.8 100 100 Calm 29.95 1014 9 14 0.00 0.00

Powered by AerisWeather